Weather History for Point Mugu, CA

Change the Weather History Date:

Thursday, January 3, 2013

  Actual Average Record
Temperature  
Mean Temperature 58 °F -  
Max Temperature 70 °F 61 °F 82 °F (2001)
Min Temperature 45 °F 44 °F 39 °F (2000)
Degree Days  
Heating Degree Days 8    
Growing Degree Days 8 (Base 50)    
Moisture  
Dew Point 34 °F    
Average Humidity 47    
Maximum Humidity 82    
Minimum Humidity 15    
Precipitation  
Precipitation 0.00 in - - ()
Sea Level Pressure  
Sea Level Pressure 30.12 in    
Wind  
Wind Speed 11 mph (NNE)    
Max Wind Speed 24 mph    
Max Gust Speed 37 mph    
Visibility 7 miles    
Events      
Averages and records for this station are not official NWS values.
T = Trace of Precipitation, MM = Missing Value Source: NWS Daily Summary

Daily Weather History Graph

Daily Weather History Graph

Search for Another Location

Airport:

Trip Planner

Search our weather history database for the weather conditions in past years. The results will help you decide how hot, cold, wet, or windy it might be!

Date:

Astronomy

Jan. 03, 2013 Rise Set
Actual Time 7:02 AM PST 4:59 PM PST
Civil Twilight 6:35 AM PST 5:27 PM PST
Nautical Twilight 6:03 AM PST 5:58 PM PST
Astronomical Twilight 5:33 AM PST 6:29 PM PST
Moon 11:21 PM PST (1/3) 10:34 AM PST (1/3)
Length of Visible Light 10h 52m
Length of Day
9h 57m
Waning Gibbous, 64% of the Moon is Illuminated
Jan 3
Waning Gibbous
Jan 4
Last Quarter
Jan 11
New
Jan 18
First Quarter
Jan 26
Full

Hourly Weather History & Observations

Time (PST) Temp. Windchill Dew Point Humidity Pressure Visibility Wind Dir Wind Speed Gust Speed Precip Events Conditions
12:54 AM 45.0 °F 39.3 °F 39.0 °F 80% 30.07 in - NNW 11.5 mph - N/A   Clear
1:54 AM 50.0 °F - 43.0 °F 77% 30.08 in - NNE 8.1 mph - N/A   Clear
2:54 AM 53.1 °F - 46.0 °F 77% 30.07 in - NE 8.1 mph - N/A   Clear
3:54 AM 54.0 °F - 46.9 °F 77% 30.08 in - NE 4.6 mph - N/A   Clear
4:54 AM 55.9 °F - 48.9 °F 77% 30.06 in - NNE 8.1 mph 18.4 mph N/A   Clear
5:54 AM 55.0 °F - 48.9 °F 80% 30.09 in 7.0 mi NNE 5.8 mph - N/A   Partly Cloudy
6:54 AM 55.9 °F - 48.9 °F 77% 30.11 in 7.0 mi NNE 8.1 mph - N/A   Partly Cloudy
7:54 AM 61.0 °F - 19.0 °F 20% 30.12 in 7.0 mi ENE 23.0 mph 36.8 mph N/A   Partly Cloudy
8:54 AM 63.0 °F - 19.4 °F 19% 30.12 in 7.0 mi NE 24.2 mph 33.4 mph N/A   Partly Cloudy
9:54 AM 64.9 °F - 19.8 °F 18% 30.14 in 7.0 mi NE 24.2 mph 36.8 mph N/A   Clear
10:54 AM 68.0 °F - 21.9 °F 17% 30.14 in 7.0 mi ENE 21.9 mph 31.1 mph N/A   Clear
11:54 AM 69.1 °F - 21.2 °F 16% 30.13 in 7.0 mi ENE 13.8 mph - N/A   Clear
12:54 PM 70.0 °F - 20.7 °F 15% 30.11 in 7.0 mi ENE 18.4 mph 29.9 mph N/A   Clear
1:54 PM 70.0 °F - 19.2 °F 15% 30.10 in 7.0 mi NE 15.0 mph 28.8 mph N/A   Partly Cloudy
2:54 PM 70.0 °F - 44.6 °F 40% 30.11 in 7.0 mi NE 12.7 mph 24.2 mph N/A   Partly Cloudy
3:54 PM 69.1 °F - 21.6 °F 17% 30.12 in 7.0 mi North 10.4 mph 16.1 mph N/A   Partly Cloudy
4:54 PM 60.1 °F - 33.3 °F 36% 30.13 in 7.0 mi NW 5.8 mph - N/A   Partly Cloudy
5:54 PM 56.8 °F - 34.9 °F 44% 30.15 in 7.0 mi NNW 8.1 mph - N/A   Partly Cloudy
6:54 PM 57.6 °F - 32.2 °F 38% 30.16 in 7.0 mi North 4.6 mph - N/A   Clear
7:54 PM 55.6 °F - 37.9 °F 52% 30.17 in 7.0 mi North 4.6 mph - N/A   Clear
8:54 PM 54.7 °F - 34.0 °F 46% 30.17 in 7.0 mi Variable 6.9 mph - N/A   Clear
9:54 PM 51.4 °F - 35.1 °F 54% 30.18 in 7.0 mi NNW 5.8 mph - N/A   Clear
10:54 PM 51.6 °F - 38.1 °F 60% 30.18 in 7.0 mi North 4.6 mph - N/A   Clear
11:54 PM 45.0 °F 40.1 °F 39.9 °F 82% 30.18 in - NW 9.2 mph - N/A   Clear